Overview Statistics Trail Chart Weather Telemetry Raw packets
 

This is the latest recevied weather packets stored in our database for station/object W5MAI. If no packets are shown the sender has not sent any weather packets the latest 10 day(s).

<< 29 30 31 32 33 34 35 >>
Time Temp. Humidity Pressure Rain* Wind** Luminosity Snow
1788132849 35.56° C 43% 1014.6 hPa 0 mm - 276 W/m² -
1788132204 35.56° C 44% 1014.6 hPa 0 mm - 315 W/m² -
1788131635 35° C 45% 1014.6 hPa 0 mm - 323 W/m² -
1788131059 35° C 44% 1014.7 hPa 0 mm - 346 W/m² -
1788130422 35.56° C 44% 1014.8 hPa 0 mm - 392 W/m² -
1788129843 35.56° C 45% 1014.8 hPa 0 mm - 461 W/m² -
1788129205 35° C 45% 1014.9 hPa 0 mm - 461 W/m² -
1788128632 35° C 44% 1014.9 hPa 0 mm - 499 W/m² -
1788128062 35° C 45% 1015 hPa 0 mm - 540 W/m² -
1788127426 35° C 45% 1015.1 hPa 0 mm - 580 W/m² -
1788126845 34.44° C 45% 1015.1 hPa 0 mm - 606 W/m² -
1788126214 35° C 44% 1015.1 hPa 0 mm - 636 W/m² -
1788125619 35° C 46% 1015.3 hPa 0 mm - 677 W/m² -
1788125035 35° C 46% 1015.3 hPa 0 mm - 703 W/m² -
1788124403 35° C 46% 1015.5 hPa 0 mm - 749 W/m² -
1788123805 34.44° C 45% 1015.8 hPa 0 mm - 756 W/m² -
1788123206 35° C 46% 1015.8 hPa 0 mm - 772 W/m² -
1788122618 35° C 47% 1016 hPa 0 mm - 860 W/m² -
1788122018 34.44° C 49% 1016.3 hPa 0 mm - 867 W/m² -
1788121420 33.89° C 50% 1016.4 hPa 0 mm - 904 W/m² -
1788120835 33.33° C 51% 1016.6 hPa 0 mm - 174 W/m² -
1788120246 33.33° C 51% 1016.9 hPa 0 mm - 970 W/m² -
1788119617 33.33° C 52% 1017 hPa 0 mm - 192 W/m² -
1788119034 33.89° C 52% 1017.1 hPa 0 mm - 1032 W/m² -
1788118438 33.33° C 53% 1017.3 hPa 0 mm - 239 W/m² -

* Rain latest hour (hover to see other rain measurements)
** Current wind speed in m/s (hover to see current wind gust speed)